sat.trackr.live / text

‹ back to catalog

ONEWEB-0140

NORAD 47286 · 2020-100AE

PAYLOAD ACTIVE UNKNOWN

§ Identity

Operator
Country
UK
Launch date
2020-12-18
Launch site
VOSTO
Launch vehicle
Mass (kg)
RCS (m²)

Purposes: comms

External: N2YO · Heavens-Above · Gunter

§ Orbital elements

Epoch: 2026-09-20T04:33:24.113952Z

Period
109.72 min
Inclination
87.8986°
Eccentricity
0.0001997
Mean motion
13.12442661 rev/d
Perigee alt
1,212.2 km
Apogee alt
1,215.2 km
Semi-major
7,591.9 km
B*
9.5381e-4
RAAN
331.7864°
Arg perigee
91.6653°
Mean anomaly
268.4704°
Rev number
27,715

§ Raw data

ONEWEB-01401 47286U 20100AE  26263.18986243  .00000356  00000+0  95381-3 0  99922 47286  87.8986 331.7864 0001997  91.6653 268.4704 13.12442661277156

JSON: /api/v1/satellites/47286 · /tle

For live sub-satellite position, see the globe view (requires WebGL).

§ Visibility from observer

Set your observer location to see the next 7 days of passes ≥ 10°. The values pass through the URL so the page stays shareable.

No JS? Fill the form by hand. The geolocation button needs JavaScript.